[[{"header":{"parameterUnit":"m.s-1","parameterCategory":1,"la1":30.2991,"la2":30.254,"lo1":-89.0895,"lo2":-89.0444,"dy":0.0017,"dx":0.0017,"nx":28,"ny":28,"refTime":"2025-12-18T03:00:00:Z","depth":0,"parameterNumber":2,"parameterNumberName":"U-component_of_WINDS"},"data":[0,0,0,0,0,0,0,0,0,0,0,0,0,0,0,0,0,0,0,0,0,0,0,0,0,0,0,0,0,0,0,0,0,0,0,0,0,0,0,0,0,0,0,0,0,0,0,0,0,0,0,0,0,0,0,0,0,0,-1.7467,-1.7467,0,-1.7512,-1.7512,-1.7513,-1.7438,-1.7435,-1.7433,-1.743,-1.748,-1.7483,-1.7487,0,0,0,0,0,0,0,0,0,0,0,0,0,-1.7319,-1.7322,-1.7467,-1.7468,-1.7468,-1.7512,-1.7512,-1.7513,-1.7438,-1.7435,-1.7432,-1.7429,-1.7478,-1.7483,-1.7487,0,0,0,0,0,0,0,0,0,0,0,0,0,-1.7376,-1.7323,-1.7467,-1.7436,-1.7434,-1.7512,-1.7512,-1.7513,-1.7439,-1.7435,-1.7431,-1.7428,-1.7477,-1.7482,-1.7488,-1.7599,0,0,-1.7505,-1.7507,0,0,0,0,0,0,0,0,-1.7373,-1.7381,-1.744,-1.7438,-1.7436,-1.7465,-1.7478,-1.7542,-1.744,-1.7437,-1.743,-1.7426,-1.7478,-1.7483,-1.75,-1.7602,-1.7604,-1.7505,-1.7509,-1.7511,-1.7513,0,0,0,0,0,0,0,-1.7369,-1.7379,-1.7485,-1.7441,-1.7438,-1.7421,-1.7425,-1.749,-1.7479,-1.7437,-1.7432,-1.7438,-1.7476,-1.7495,-1.7501,-1.7605,-1.7505,-1.751,-1.7514,-1.7516,-1.7801,-1.7805,0,0,0,0,0,0,-1.7368,-1.7376,-1.7483,-1.7486,-1.7394,-1.7427,-1.7431,-1.746,-1.7478,-1.7477,-1.7441,-1.7434,-1.7488,-1.7495,-1.7503,-1.7636,-1.7511,-1.7516,-1.752,-1.7797,-1.7802,-1.7806,0,0,0,0,0,0,-1.7365,-1.7379,-1.7482,-1.743,-1.7441,-1.7433,-1.7466,-1.7463,-1.7481,-1.7481,-1.7479,-1.7462,-1.7485,-1.7495,-1.7576,-1.7636,-1.7519,-1.7524,-1.7792,-1.7798,-1.7804,-1.7902,0,0,0,0,0,0,-1.7362,-1.7378,-1.742,-1.7431,-1.7445,-1.7554,-1.747,-1.7466,-1.7491,-1.7482,-1.75,-1.75,-1.7483,-1.7568,-1.7581,-1.7642,-1.7528,-1.7786,-1.7794,-1.7802,-1.7894,-1.7911,-1.7926,0,0,0,0,0,-1.7356,-1.7446,-1.7422,-1.7436,-1.7496,-1.7557,-1.7565,-1.7543,-1.7496,-1.7539,-1.7538,-1.7499,-1.7627,-1.7577,-1.7591,-1.7654,-1.7782,-1.7792,-1.7801,-1.7886,-1.7908,-1.7926,0,0,0,0,0,0,-1.7443,-1.7447,-1.7421,-1.7516,-1.7537,-1.7544,-1.7597,-1.7566,-1.7601,-1.7592,-1.7563,-1.7568,-1.7656,-1.7663,-1.7607,-1.7764,-1.7697,-1.771,-1.7757,-1.7777,-1.7793,-1.7791,-1.7533,0,0,0,0,0,-1.7473,-1.7521,-1.7522,-1.7607,-1.7618,-1.7606,-1.7632,-1.7613,-1.7633,-1.7642,-1.7648,-1.767,-1.7715,-1.7746,-1.7787,-1.7893,-1.7897,-1.7944,-1.796,-1.7973,-1.7986,-1.8044,-1.8065,-1.7838,-1.7837,-1.7837,0,0,-1.7536,-1.7544,-1.7577,-1.7624,-1.7638,-1.769,-1.7614,-1.7672,-1.7711,-1.7651,-1.7729,-1.7733,-1.7757,-1.7851,-1.7893,-1.786,-1.8049,-1.7985,-1.7996,-1.8001,-1.8056,-1.8077,-1.8096,-1.7844,-1.7843,-1.7842,0,0,-1.7678,-1.7688,-1.776,-1.7775,-1.7796,-1.7788,-1.7805,-1.7817,-1.7818,-1.7895,-1.7851,-1.7897,-1.7975,-1.7994,-1.8014,-1.8162,-1.8128,-1.8176,-1.8262,-1.8319,-1.8337,-1.8353,-1.8408,-1.8428,-1.8188,-1.8188,-1.8188,0,-1.7754,-1.783,-1.7801,-1.7863,-1.7886,-1.7832,-1.7906,-1.7922,-1.7957,-1.7974,-1.7936,-1.8033,-1.8045,-1.8144,-1.818,-1.8197,-1.8217,-1.8175,-1.8337,-1.8352,-1.8367,-1.8419,-1.8439,-1.8194,-1.8193,-1.8193,-1.8192,0,-1.7923,-1.7976,-1.8032,-1.8066,-1.8094,-1.8162,-1.8145,-1.8177,-1.8155,-1.8151,-1.8231,-1.8242,-1.8286,-1.8307,-1.8287,-1.8404,-1.8383,-1.8341,-1.8274,-1.8395,-1.8443,-1.8463,-1.8202,-1.82,-1.8199,-1.8197,0,0,-1.8123,-1.8139,-1.8161,-1.8176,-1.8195,-1.8236,-1.8301,-1.8342,-1.8372,-1.8397,-1.8452,-1.8519,-1.848,-1.8503,-1.8484,-1.8533,-1.8652,-1.8485,-1.8485,-1.8518,-1.8784,-1.8818,-1.8841,-1.8629,-1.8632,-1.8635,-1.8783,0,-1.8266,-1.8377,-1.8353,-1.8463,-1.8513,-1.8463,-1.8519,-1.8538,-1.8536,-1.8578,-1.8575,-1.8624,-1.8568,-1.8582,-1.8628,-1.8628,-1.8706,-1.8617,-1.8682,-1.8685,-1.868,-1.8866,-1.8902,-1.9041,-1.8802,-1.8805,-1.8807,0,-1.8448,-1.8479,-1.8594,-1.8606,-1.8626,-1.8677,-1.8714,-1.8754,-1.8774,-1.8769,-1.8794,-1.8765,-1.8831,-1.8761,-1.8852,-1.8792,-1.8816,-1.882,-1.8825,-1.8833,-1.8755,-1.8881,-1.9084,-1.9106,-1.8836,-1.8834,-1.8832,0,-1.8585,-1.8656,-1.8734,-1.8748,-1.8763,-1.8801,-1.8809,-1.8825,-1.8852,-1.8884,-1.8901,-1.894,-1.8963,-1.8994,-1.8977,-1.8927,-1.9072,-1.9,-1.9072,-1.9072,-1.9107,-1.9105,-1.9319,-1.9119,-1.9118,-1.9118,-1.9117,0,-1.8749,-1.8822,-1.8796,-1.8845,-1.8925,-1.8897,-1.8977,-1.898,-1.8994,-1.9043,-1.9001,-1.9049,-1.9022,-1.9067,-1.9054,-1.9133,-1.9142,-1.9141,-1.9138,-1.9147,-1.9147,-1.9165,-1.9156,-1.9123,-1.9122,-1.9121,-1.912,0,-1.8917,-1.8902,-1.8985,-1.8992,-1.8995,-1.9054,-1.9061,-1.9107,-1.91,-1.9162,-1.9175,-1.9166,-1.9217,-1.9202,-1.9258,-1.9249,-1.9349,-1.9332,-1.9343,-1.9339,-1.9412,-1.9407,-1.9647,-1.9678,-1.9455,-1.9457,-1.9459,0,-1.9024,-1.9079,-1.9091,-1.9121,-1.9132,-1.9179,-1.9206,-1.918,-1.921,-1.9237,-1.928,-1.9327,-1.9363,-1.9448,-1.9446,-1.9489,-1.9474,-1.9555,-1.948,-1.9488,-1.9478,-1.9476,-1.9482,-1.9571,-1.9574,-1.9576,-1.9577,0,-1.9216,-1.9206,-1.9245,-1.9283,-1.9316,-1.9344,-1.9369,-1.9396,-1.9371,-1.9407,-1.9458,-1.9487,-1.9543,-1.9591,-1.9629,-1.9639,-1.9606,-1.96,-1.962,-1.9631,-1.9636,-1.9637,-1.9386,-1.9596,-1.9594,-1.9593,-1.9592,-1.9591,-1.9358,-1.9405,-1.9421,-1.9467,-1.9483,-1.9507,-1.9551,-1.9549,-1.9591,-1.9634,-1.9616,-1.9676,-1.9695,-1.9743,-1.9757,-1.9804,-1.9773,-1.98,-1.9808,-1.9816,-1.9826,-1.9626,-1.981,-1.981,-1.9809,-1.9809,-1.9809,0,-1.955,-1.9558,-1.96,-1.9636,-1.9672,-1.9635,-1.966,-1.9694,-1.9746,-1.9766,-1.9803,-1.9862,-1.9908,-1.991,-1.9954,-1.9991,-1.9977,-2.0004,-2.0002,-2.0005,-1.985,-1.983,-2.0014,-2.0014,-2.0014,-2.0014,-2.0014,-2.0014,-1.9655,-1.9732,-1.9724,-1.981,-1.9817,-1.9874,-1.9892,-1.9915,-1.993,-1.9998,-2.0036,-2.0036,-2.005,-2.0094,-2.0135,-2.0134,-2.0153,-2.0187,-2.0181,-2.0036,-2.0016,-1.9996,-1.9978,-2.019,-2.019,-2.0332,-2.0333,-2.0334]},{"header":{"parameterUnit":"m.s-1","parameterCategory":1,"la1":30.2991,"la2":30.254,"lo1":-89.0895,"lo2":-89.0444,"dy":0.0017,"dx":0.0017,"nx":28,"ny":28,"refTime":"2025-12-18T03:00:00:Z","depth":0,"parameterNumber":3,"parameterNumberName":"V-component_of_WINDS"},"data":[0,0,0,0,0,0,0,0,0,0,0,0,0,0,0,0,0,0,0,0,0,0,0,0,0,0,0,0,0,0,0,0,0,0,0,0,0,0,0,0,0,0,0,0,0,0,0,0,0,0,0,0,0,0,0,0,0,0,-2.971,-2.9711,0,-2.9797,-2.9798,-2.9799,-2.9776,-2.9774,-2.9772,-2.9771,-2.9857,-2.986,-2.9864,0,0,0,0,0,0,0,0,0,0,0,0,0,-2.9519,-2.9523,-2.971,-2.9711,-2.9712,-2.9797,-2.9798,-2.9799,-2.9776,-2.9774,-2.9772,-2.977,-2.9855,-2.986,-2.9865,0,0,0,0,0,0,0,0,0,0,0,0,0,-2.9604,-2.9524,-2.971,-2.9711,-2.9712,-2.9797,-2.9798,-2.98,-2.9777,-2.9774,-2.9771,-2.9769,-2.9854,-2.9859,-2.9865,-2.9953,0,0,-2.9883,-2.9886,0,0,0,0,0,0,0,0,-2.9599,-2.9611,-2.9709,-2.9711,-2.9712,-2.9773,-2.9762,-2.9851,-2.9777,-2.9752,-2.9771,-2.9768,-2.9831,-2.9838,-2.986,-2.9957,-2.9961,-2.9884,-2.9887,-2.989,-2.9891,0,0,0,0,0,0,0,-2.9593,-2.9607,-2.9744,-2.9711,-2.9712,-2.9706,-2.9715,-2.9779,-2.9805,-2.9754,-2.9752,-2.9763,-2.9831,-2.9855,-2.9862,-2.9962,-2.9883,-2.9889,-2.9892,-2.9895,-3.0136,-3.0138,0,0,0,0,0,0,-2.9587,-2.9602,-2.9741,-2.9747,-2.9648,-2.9711,-2.9721,-2.9756,-2.9804,-2.9809,-2.9765,-2.9762,-2.9846,-2.9855,-2.9865,-2.9971,-2.989,-2.9895,-2.9899,-3.0133,-3.0136,-3.0139,0,0,0,0,0,0,-2.9583,-2.96,-2.9738,-2.9674,-2.9691,-2.9717,-2.9756,-2.9759,-2.9783,-2.9813,-2.9817,-2.9785,-2.9844,-2.9857,-2.9932,-2.9974,-2.9898,-2.9903,-3.0129,-3.0134,-3.0138,-3.0184,0,0,0,0,0,0,-2.9578,-2.9598,-2.9633,-2.9675,-2.9695,-2.9804,-2.9759,-2.9763,-2.9793,-2.979,-2.9832,-2.9837,-2.9843,-2.9923,-2.9938,-2.998,-2.9908,-3.0126,-3.0131,-3.0137,-3.0179,-3.019,-3.0199,0,0,0,0,0,-2.9571,-2.9642,-2.9635,-2.9652,-2.9739,-2.9807,-2.9818,-2.9825,-2.9797,-2.9831,-2.985,-2.9836,-2.9967,-2.9931,-2.9947,-2.9992,-3.0123,-3.013,-3.0136,-3.0175,-3.0188,-3.0199,0,0,0,0,0,0,-2.9602,-2.9647,-2.964,-2.9727,-2.9764,-2.9803,-2.9847,-2.9838,-2.9882,-2.9877,-2.9882,-2.9892,-2.9969,-2.9988,-2.9947,-3.008,-3.0041,-3.0051,-3.0065,-3.0077,-3.0087,-3.008,-2.9913,0,0,0,0,0,-2.962,-2.9673,-2.9708,-2.9782,-2.98,-2.9821,-2.985,-2.9853,-2.989,-2.9905,-2.9929,-2.9965,-3.0015,-3.0047,-3.0094,-3.0182,-3.019,-3.0221,-3.0231,-3.0238,-3.0247,-3.0294,-3.0308,-3.0161,-3.0161,-3.0161,0,0,-2.9656,-2.9687,-2.972,-2.9789,-2.9817,-2.9871,-2.9834,-2.9892,-2.9931,-2.9913,-2.9986,-3.0005,-3.0045,-3.0127,-3.0164,-3.0146,-3.029,-3.0247,-3.0253,-3.0257,-3.0302,-3.0316,-3.0329,-3.0165,-3.0164,-3.0164,0,0,-2.9749,-2.9778,-2.9842,-2.9871,-2.9915,-2.9928,-2.9944,-2.9985,-2.9997,-3.007,-3.0058,-3.0104,-3.0189,-3.0219,-3.0244,-3.0348,-3.0336,-3.0363,-3.0414,-3.0461,-3.0472,-3.0482,-3.0519,-3.0532,-3.0372,-3.0372,-3.0372,0,-2.9787,-2.9869,-2.9876,-2.9935,-2.9966,-2.9953,-3.0018,-3.0045,-3.0102,-3.0123,-3.0101,-3.0208,-3.0234,-3.0322,-3.0348,-3.0369,-3.0386,-3.0358,-3.047,-3.0481,-3.049,-3.0525,-3.0539,-3.0375,-3.0375,-3.0374,-3.0374,0,-2.9914,-2.997,-3.0017,-3.0073,-3.0109,-3.017,-3.0185,-3.022,-3.0219,-3.0234,-3.0308,-3.034,-3.0393,-3.0414,-3.0413,-3.0502,-3.0489,-3.0469,-3.0429,-3.0507,-3.054,-3.0554,-3.0379,-3.0378,-3.0377,-3.0376,0,0,-3.0029,-3.0089,-3.0106,-3.0131,-3.0179,-3.0222,-3.0282,-3.0335,-3.0365,-3.0404,-3.0455,-3.0527,-3.0509,-3.0538,-3.054,-3.0581,-3.0661,-3.0556,-3.0557,-3.0574,-3.076,-3.0775,-3.079,-3.0653,-3.0655,-3.0657,-3.0756,0,-3.0126,-3.0234,-3.0242,-3.0339,-3.0391,-3.038,-3.0432,-3.0466,-3.0482,-3.0527,-3.0543,-3.0594,-3.0567,-3.0584,-3.0624,-3.0643,-3.0698,-3.0636,-3.0699,-3.0701,-3.0689,-3.0807,-3.0823,-3.0915,-3.0769,-3.0772,-3.0773,0,-3.0253,-3.0298,-3.04,-3.0441,-3.0463,-3.051,-3.0559,-3.0603,-3.0641,-3.0649,-3.0682,-3.0679,-3.074,-3.0699,-3.0782,-3.0739,-3.0765,-3.0778,-3.0782,-3.0788,-3.0742,-3.0816,-3.0945,-3.0958,-3.0794,-3.0792,-3.079,0,-3.0327,-3.0412,-3.0484,-3.0506,-3.0555,-3.0589,-3.061,-3.0646,-3.0677,-3.072,-3.074,-3.0789,-3.0815,-3.0852,-3.0861,-3.0831,-3.0945,-3.0904,-3.0952,-3.0952,-3.0977,-3.0975,-3.1111,-3.0994,-3.0994,-3.0993,-3.0993,0,-3.0434,-3.0497,-3.0518,-3.0563,-3.0633,-3.0641,-3.0709,-3.0729,-3.0761,-3.0808,-3.08,-3.0845,-3.0854,-3.09,-3.0908,-3.0975,-3.0987,-3.0995,-3.0996,-3.0996,-3.0995,-3.1012,-3.1006,-3.0997,-3.0996,-3.0996,-3.0995,0,-3.0527,-3.0544,-3.0623,-3.0663,-3.0674,-3.0724,-3.0758,-3.08,-3.0814,-3.0874,-3.0888,-3.0911,-3.0964,-3.0977,-3.1041,-3.1046,-3.1126,-3.1121,-3.1113,-3.1113,-3.116,-3.1155,-3.1312,-3.1333,-3.1203,-3.1204,-3.1205,0,-3.0595,-3.0643,-3.0689,-3.0721,-3.0744,-3.0795,-3.0827,-3.0837,-3.087,-3.0917,-3.0954,-3.1007,-3.1049,-3.1135,-3.1156,-3.1204,-3.12,-3.1252,-3.1207,-3.1205,-3.1201,-3.1198,-3.1202,-3.126,-3.1262,-3.1263,-3.1264,0,-3.0712,-3.0718,-3.0765,-3.0816,-3.0855,-3.0895,-3.0933,-3.0959,-3.0973,-3.1011,-3.1066,-3.11,-3.1165,-3.1217,-3.1266,-3.1286,-3.1277,-3.1278,-3.1291,-3.1291,-3.1285,-3.1288,-3.1136,-3.1274,-3.1273,-3.1272,-3.1272,-3.1271,-3.0794,-3.0837,-3.0876,-3.0929,-3.0959,-3.0994,-3.1036,-3.1056,-3.1103,-3.1157,-3.116,-3.122,-3.1256,-3.132,-3.1344,-3.139,-3.1374,-3.1394,-3.1399,-3.1404,-3.1408,-3.1278,-3.1399,-3.1399,-3.1398,-3.1398,-3.1398,0,-3.0911,-3.0936,-3.0984,-3.1038,-3.108,-3.1069,-3.111,-3.1145,-3.1199,-3.1234,-3.1276,-3.1339,-3.139,-3.1415,-3.1465,-3.1497,-3.1494,-3.151,-3.1507,-3.1512,-3.1419,-3.1402,-3.1511,-3.1511,-3.1511,-3.1511,-3.1511,-3.1511,-3.0977,-3.1048,-3.1059,-3.1144,-3.1168,-3.1228,-3.1252,-3.1285,-3.1313,-3.1384,-3.1427,-3.1443,-3.1474,-3.1526,-3.1572,-3.1578,-3.1596,-3.1614,-3.1618,-3.153,-3.1519,-3.1508,-3.1492,-3.1618,-3.1618,-3.1707,-3.1708,-3.1708]}]]